Find Local Weather

World > North America > United States > Florida

Wmaf Radio Tower, Florida Regional Weather

Lat: 30.47N, Lon: 83.44W
Wx Zone: FLZ019
Feedback
Expires:201809231100;;079848
ASUS42 KTBW 231017
RWRFL 
FLORIDA REGIONAL WEATHER ROUNDUP
NATIONAL WEATHER SERVICE TAMPA BAY RUSKIN FL
600 AM EDT SUN SEP 23 2018

NOTE: "FAIR" INDICATES FEW OR NO CLOUDS BELOW 12,000 FEET WITH NO
SIGNIFICANT WEATHER AND/OR OBSTRUCTIONS TO VISIBILITY.


FLZ011-016>038-118-127-128-134-139-239-231100-
NORTH FLORIDA
  
CITY           SKY/WX    TMP DP  RH WIND       PRES   REMARKS
MARIANNA       FAIR      72  71  97 NE3       29.98S                  
TALLAHASSEE    FAIR      74  72  93 CALM      29.98S                  
PERRY          FAIR      74  72  91 CALM      29.99S                  
LIVE OAK       CLEAR     72  72 100 CALM      29.99S                  
CROSS CITY     FAIR      73  72  98 E3        29.99R                  
LAKE CITY      FAIR      68  68 100 CALM      30.01R                  
GAINESVILLE    FAIR      72  69  90 CALM      30.02R                  
PALATKA        MOCLDY    70  70 100 CALM      30.00S                  
MAYPORT NAS    FAIR      78  71  79 W3        30.00S                  
JACKSONVILLE   FAIR      72  71  97 CALM      29.99F                  
JAX NAS        PTCLDY    79  73  82 E5        30.00F                  
JAX CECIL      MOCLDY    68  66  94 CALM      30.00R                  
ST AUGUSTINE   FAIR      73  69  87 CALM      30.00S                  
PALM COAST     CLEAR     72  70  94 CALM      29.99S                  

STATION/POSITION SKY/WX   TEMP    WIND        PRES    WAVE   SWELL
                          AIR SEA DIR/SP/G            HT/PER HT/PER
                          (F)     (DEG/KT/KT) (MB)    (FT/S) (FT/S)
SHELL POINT      NOT AVBL
KEATON BEACH               74      70/  7/  8 1015.3F
CEDAR KEY                  78      80/  9/ 10 1015.3R
FERNANDINA                 80 85              1016.9R
30.7N   81.3W                 85                N/A     3/ 9   2/11
MAYPORT                    79 85              1016.2F
31.4N   80.9W              81 84  140/ 10/ 12 1016.1F   3/11   2/11
ST AUGUSTINE               82 83  120/  8/  9 1016.0R

$$

SKY/WX - Weather  TMP - Temperature  DP - Dew Point  RH - Relative Humidity
WIND - Wind Direction/Speed PRES - Barometric Pressure